Flight Track Log - Related Links

Times and Time Zones

All times are in EDT time to prevent confusion due to time zone crossing. See the KAP927 flight status page for this flight to view local times or setup timezone preferences in your user account.

Time Position Orientation Groundspeed Altitude Reporting Facility
EDT Latitude Longitude Course Direction KTS MPH feet Rate Location/Type
Fri 07:10:50 AM 44.5425 -75.2975 105° East 156 180 4,000  Level Boston Center
Fri 07:11:49 AM 44.5061 -75.2608 144° Southeast 156 180 4,500 462 Climbing Boston Center
Fri 07:12:47 AM 44.4672 -75.2300 150° Southeast 156 180 4,900 407 Climbing Boston Center
Fri 07:13:47 AM 44.4303 -75.2050 154° Southeast 156 180 5,300 298 Climbing Boston Center
Fri 07:14:48 AM 44.3894 -75.1711 149° Southeast 156 180 5,500 99 Climbing Boston Center
Fri 07:15:00 AM 44.4960 -75.2999 148° Southeast  Level Estimated
Fri 07:15:48 AM 44.3486 -75.1314 145° Southeast 161 185 5,500  Level Boston Center
Fri 07:16:00 AM 44.4848 -75.2409 105° East  Level FlightAware Approximate
Fri 07:16:49 AM 44.3078 -75.0947 147° Southeast 169 194 5,500  Level Boston Center
Fri 07:17:47 AM 44.2650 -75.0550 146° Southeast 174 200 5,500  Level Boston Center
Fri 07:18:47 AM 44.2242 -75.0214 149° Southeast 174 200 5,500  Level Boston Center
Fri 07:19:48 AM 44.1831 -74.9878 150° Southeast 174 200 5,500  Level Boston Center
Fri 07:20:47 AM 44.1422 -74.9572 152° Southeast 174 200 5,500  Level Boston Center
Fri 07:21:48 AM 44.1011 -74.9294 154° Southeast 174 200 5,500  Level Boston Center
Fri 07:22:49 AM 44.0603 -74.8872 143° Southeast 179 206 5,500  Level Boston Center
Fri 07:23:47 AM 44.0192 -74.8536 150° Southeast 179 206 5,500  Level Boston Center
Fri 07:24:49 AM 43.9783 -74.8203 150° Southeast 179 206 5,500  Level Boston Center
Fri 07:25:48 AM 43.9394 -74.7869 148° Southeast 179 206 5,500  Level Boston Center
Fri 07:26:49 AM 43.8983 -74.7508 148° Southeast 179 206 5,500  Level Boston Center
Fri 07:27:47 AM 43.8553 -74.7175 151° Southeast 179 206 5,500  Level Boston Center
Fri 07:28:48 AM 43.8164 -74.6817 146° Southeast 179 206 5,500  Level Boston Center
Fri 07:29:48 AM 43.7756 -74.6456 147° Southeast 179 206 5,500  Level Boston Center
Fri 07:30:49 AM 43.7322 -74.6122 151° Southeast 179 206 5,500 -50 Level Boston Center
Fri 07:31:49 AM 43.6892 -74.5764 149° Southeast 179 206 5,400  Descending Boston Center
Fri 07:32:47 AM 43.6544 -74.5378 141° Southeast 179 206 5,500  Climbing Boston Center
Fri 07:33:48 AM 43.6114 -74.5019 149° Southeast 179 206 5,400 -49 Descending Boston Center
Fri 07:34:49 AM 43.5683 -74.4689 151° Southeast 179 206 5,400 50 Level Boston Center
Fri 07:35:47 AM 43.5250 -74.4389 153° Southeast 179 206 5,500 51 Climbing Boston Center
Fri 07:36:47 AM 43.4817 -74.4058 151° Southeast 179 206 5,500  Level Boston Center
Fri 07:37:17 AM 43.4572 -74.3822 145° Southeast 176 203 5,500  Level Boston Center
Fri 07:37:48 AM 43.4408 -74.3703 152° Southeast 179 206 5,500  Level Boston Center
Fri 07:38:48 AM 43.3936 -74.3286 147° Southeast 176 203 5,500 -50 Level Boston Center
Fri 07:39:48 AM 43.3525 -74.2933 148° Southeast 179 206 5,400 -50 Descending Boston Center
Fri 07:40:49 AM 43.3092 -74.2578 149° Southeast 179 206 5,400  Level Boston Center
Fri 07:41:49 AM 43.2681 -74.2222 148° Southeast 179 206 5,400  Level Boston Center
Fri 07:42:47 AM 43.2269 -74.1897 150° Southeast 179 206 5,400  Level Boston Center
Fri 07:43:48 AM 43.1836 -74.1572 151° Southeast 179 206 5,400  Level Boston Center
Fri 07:44:49 AM 43.1383 -74.1275 154° Southeast 179 206 5,400  Level Boston Center
Fri 07:45:49 AM 43.0947 -74.0978 154° Southeast 179 206 5,400  Level Boston Center
Fri 07:46:49 AM 43.0517 -74.0653 151° Southeast 179 206 5,400  Level Boston Center
Fri 07:47:47 AM 43.0083 -74.0358 154° Southeast 179 206 5,400 -202 Level Boston Center
Fri 07:48:48 AM 42.9628 -74.0033 152° Southeast 179 206 5,000 -347 Descending Boston Center
Fri 07:49:48 AM 42.9153 -73.9711 154° Southeast 184 212 4,700 -347 Descending Boston Center
Fri 07:50:49 AM 42.8678 -73.9414 155° Southeast 189 217 4,300 -393 Descending Boston Center
Fri 07:51:50 AM 42.8264 -73.9178 157° South 189 217 3,900 -554 Descending Boston Center
Fri 07:52:59 AM 42.7664 -73.8797 155° Southeast 182 209 3,100 -709 Descending Boston Center
Fri 07:53:57 AM 42.7250 -73.8589 160° South 151 174 2,400 -756 Descending Boston Center
Fri 07:54:58 AM 42.7108 -73.8275 122° Southeast 107 123 1,600 -934 Descending Boston Center
Fri 07:55:59 AM 42.7319 -73.8081 34° Northeast 95 109 500 -1,082 Descending Boston Center
Fri 07:57:00 AM 42.7333 -73.8000 160° South  Level FlightAware Approximate
Fri 08:04:00 AM 42.7491 -73.8020 160° South  Level Estimated
Fri 08:05:00 AM 42.7491 -73.8020 160° South  Level Estimated
Fri 08:06:00 AM 42.7491 -73.8020 160° South  Level Estimated

Login

Don't have an account? Register now (free) for customized features, flight alerts, and more!